User: anonymous   Login
Location: Bavegemberg
(50.9500°N, 3.8833°E)
Time: 14:09:07
(UTC+00:00)
Language:

FENGYUN 1C DEB - Orbit

View from above orbital plane
View from above orbital plane
View from above satellite
View from above satellite

Ground track
Ground track

The orbit data is extracted from the following two-line orbital elements,

1 29993U 99025LT  24277.88969146  .00000882  00000-0  54061-3 0  9997
2 29993  98.8535 318.4370 0040453  97.9988 262.5775 14.07918498910504
Epoch (UTC): 03 October 2024 21:21:09
Eccentricity: 0.0040453
inclination: 98.8535°
perigee height: 837 km
apogee height: 896 km
right ascension of ascending node: 318.4370°
argument of perigee: 97.9988°
revolutions per day: 14.07918498
mean anomaly at epoch: 262.5775°
orbit number at epoch: 91050

The dashed part of the orbit path shows where the satellite is in the earth's shadow,  

DLR